Salem, Oregon, United States (97301)
Lat: 44.94N, Lon: 123.03W
Wx Zone: ORZ007
Local Info
Past Weather Observations for Wednesday, November 19, 2014

NOTE: This archive is for the closest National Weather Service station to Salem. Information may differ from the station used for current weather conditions.

Click here for Long-term Archive

Time Weather Temperature Dewpoint Humidity Pressure Winds Precip Visibility
23:56
Overcast
Light Rain
43°F / 6°C 39°F / 4°C 87% 29.98 in
(1015 mb)
ENE 4.6 mph
(ENE 7 kph)
0.01 in
(0.25 mm)
2SM
23:46
Overcast
Fog And Mist
43°F / 6°C 41°F / 5°C 93% 29.98 in
(1015 mb)
N 3.5 mph
(N 6 kph)
0.01 in
(0.25 mm)
2 1/2SM
23:17
Overcast
Light Rain
43°F / 6°C 39°F / 4°C 87% 29.98 in
(1015 mb)
SSE 6.9 mph
(SSE 11 kph)
0.01 in
(0.25 mm)
3SM
23:08
Overcast
Light Rain
41°F / 5°C 39°F / 4°C 93% 29.98 in
(1015 mb)
SE 6.9 mph
(SE 11 kph)
0.00 in
(0.00 mm)
2 1/2SM
22:56
Overcast
Light Rain
41°F / 5°C 39°F / 4°C 93% 29.98 in
(1015 mb)
SE 5.8 mph
(SE 9 kph)
0.01 in
(0.25 mm)
4SM
22:08
Overcast
Fog And Mist
43°F / 6°C 39°F / 4°C 87% 29.95 in
(1014 mb)
Calm - 5SM
21:56
Overcast
Fog And Mist
41°F / 5°C 39°F / 4°C 93% 29.95 in
(1014 mb)
SE 4.6 mph
(SE 7 kph)
0.01 in
(0.25 mm)
5SM
20:56
Overcast
Light Rain
43°F / 6°C 39°F / 4°C 87% 29.95 in
(1014 mb)
Calm 0.05 in
(1.27 mm)
3SM
20:04
Overcast
Light Rain
43°F / 6°C 37°F / 3°C 81% 29.92 in
(1013 mb)
Calm 0.02 in
(0.51 mm)
4SM
19:56
Overcast
Light Rain
43°F / 6°C 39°F / 4°C 87% 29.92 in
(1013 mb)
Calm 0.05 in
(1.27 mm)
4SM
18:56
Overcast
Light Rain
43°F / 6°C 36°F / 2°C 76% 29.92 in
(1013 mb)
Calm 0.02 in
(0.51 mm)
6SM
17:56
Overcast
43°F / 6°C 36°F / 2°C 76% 29.89 in
(1012 mb)
ESE 3.5 mph
(ESE 6 kph)
0.00 in
(0.00 mm)
10SM
16:56
Overcast
Light Rain
46°F / 8°C 30°F / -1°C 53% 29.89 in
(1012 mb)
SE 3.5 mph
(SE 6 kph)
0.00 in
(0.00 mm)
10SM
16:30
Overcast
46°F / 8°C 30°F / -1°C 53% 29.89 in
(1012 mb)
ESE 5.8 mph
(ESE 9 kph)
- 10SM
15:56
Overcast
48°F / 9°C 27°F / -3°C 43% 29.89 in
(1012 mb)
Calm - 10SM
14:56
Mostly Cloudy
48°F / 9°C 27°F / -3°C 43% 29.86 in
(1011 mb)
NE 5.8 mph
(NE 9 kph)
- 10SM
13:56
Clear
48°F / 9°C 25°F / -4°C 40% 29.86 in
(1011 mb)
Variable 3.5 mph
(Variable 6 kph)
- 10SM
12:56
Clear
46°F / 8°C 25°F / -4°C 43% 29.89 in
(1012 mb)
NNW 5.8 mph
(NNW 9 kph)
- 10SM
11:56
Mostly Cloudy
45°F / 7°C 23°F / -5°C 42% 29.92 in
(1013 mb)
N 6.9 mph
(N 11 kph)
- 10SM
10:56
Mostly Cloudy
45°F / 7°C 25°F / -4°C 46% 29.95 in
(1014 mb)
NE 3.5 mph
(NE 6 kph)
- 10SM
09:56
Mostly Cloudy
43°F / 6°C 27°F / -3°C 53% 29.95 in
(1014 mb)
Calm - 10SM
08:56
Clear
37°F / 3°C 28°F / -2°C 70% 29.98 in
(1015 mb)
S 3.5 mph
(S 6 kph)
- 10SM
07:56
Mostly Cloudy
36°F / 2°C 28°F / -2°C 75% 29.98 in
(1015 mb)
Calm - 10SM
06:56
Mostly Cloudy
36°F / 2°C 27°F / -3°C 70% 30.01 in
(1016 mb)
Calm - 10SM
05:56
Clear
36°F / 2°C 27°F / -3°C 70% 30.01 in
(1016 mb)
Calm - 10SM
04:56
Clear
37°F / 3°C 27°F / -3°C 65% 30.01 in
(1016 mb)
NW 4.6 mph
(NW 7 kph)
- 10SM
03:56
Mostly Cloudy
36°F / 2°C 28°F / -2°C 75% 30.04 in
(1017 mb)
NNE 3.5 mph
(NNE 6 kph)
- 10SM
02:56
Clear
34°F / 1°C 27°F / -3°C 75% 30.06 in
(1018 mb)
Calm - 10SM
01:56
Clear
34°F / 1°C 28°F / -2°C 81% 30.06 in
(1018 mb)
Calm - 9SM
00:56
Clear
34°F / 1°C 27°F / -3°C 75% 30.06 in
(1018 mb)
Calm - 10SM
Time Weather Temperature Dewpoint Humidity Pressure Winds Precip Visibility


Weather for websites

WeatherForYou.com, LLC is not responsible for any damages or problems caused by this service. Current weather conditions are obtained from the closest station including government and personal stations which may have varying degrees of accuracy. Weather forecasts are derived from the NOAA NDFD. Like all things, this site belongs to Jesus Christ... He just trusts me to maintain it. If you have any questions or comments email webmaster@weatherforyou.com

Copyright © 2014, WeatherForYou.com LLC. All rights reserved.